Tracking 19794 objects as of 21-Jul-2019
HD Live streaming from Space Station
objects crossing your sky now

COSMOS 1275 DEB

Track COSMOS 1275 DEB now!
10-day predictions


NORAD ID: 12781
Int'l Code: 1981-053DX
Perigee: 917.7 km
Apogee: 1,026.5 km
Inclination: 83.2 °
Period: 104.4 minutes
Semi major axis: 7343 km
RCS: 0.0804 m2 (small)
Launch date: June 4, 1981
Source: Commonwealth of Independent States (former USSR) (CIS)
Launch site: PLESETSK MISSILE AND SPACE COMPLEX (PKMTR)

Note: This is SATELLITE DEBRIS
aabbcc
Your satellite tracking list
Your tracking list is empty




NASA's NSSDC Master Catalog

Two Line Element Set (TLE):
1 12781U 81053DX  19201.84258637 -.00000217 +00000-0 -21993-3 0  9991
2 12781 083.1746 330.4428 0074039 329.9611 184.2828 13.79702142900488
Source of the keplerian elements: AFSPC